Regional Weather Roundup
Issued by NWS

Home | Current Version | Previous Version | Text Only | Print | Product List | Glossary Off
Versions: 1 2 3 4 5 6 7 8 9 10 11 12 13 14 15 16 17 18 19 20 21 22 23 24 25 26 27 28 29 30 31 32 33 34 35 36 37 38 39 40 41 42 43 44 45 46 47 48 49 50

000
ASUS45 KSLC 011810
RWRUT

UTAH REGIONAL WEATHER ROUNDUP
NATIONAL WEATHER SERVICE SALT LAKE CITY UT
1200 PM MDT MON SEP 01 2014

UTZ001>011-023>025-011900-

NORTHERN UTAH

CITY           SKY/WX    TMP DP  RH WIND       PRES   REMARKS
HILL AFB       SUNNY     69  36  29 VRB1      30.12S
LOGAN          SUNNY     68  37  32 CALM      30.11S
OGDEN          SUNNY     72  37  28 N7        30.11S
PROVO AIRPORT  SUNNY     68  45  42 VRB5      30.13R
SALT LAKE CITY MOSUNNY   73  42  32 VRB6      30.10R
VERNAL         SUNNY     67  36  31 SE7       30.11S
WENDOVER       SUNNY     73  37  27 S8        30.11S
HEBER CITY     SUNNY     64  39  39 CALM      30.14F
WEST JORDAN    SUNNY     73  48  40 N5        30.12S

$$

UTZ012>022-026-027-011900-

SOUTHERN UTAH

CITY           SKY/WX    TMP DP  RH WIND       PRES   REMARKS
BRYCE CANYON   SUNNY     73  36  25 W9        30.26S
CEDAR CITY     SUNNY     79  35  20 VRB5      30.13S
MILFORD        SUNNY     79  38  22 NE10      30.10F
MOAB/CYNLANDS  SUNNY     81  33  17 VRB5      30.02F
PRICE          SUNNY     74  32  21 SE3       30.13S
ST GEORGE      CLEAR     86  41  20 CALM      29.96F
KANAB            N/A     84  39  20 S9        30.11F

$$

REGIONAL REPORTS     COLORADO/ARIZONA

CITY           SKY/WX    TMP DP  RH WIND       PRES   REMARKS
CRAIG, CO      SUNNY     69  41  36 N5        30.14F
GRAND JUNCTION SUNNY     74  36  25 VRB3      30.07F
RIFLE          SUNNY     71  38  29 N5        30.12F
MONTROSE       SUNNY     76  33  21 CALM      30.14F
CORTEZ         SUNNY     81  35  19 VRB5      30.15S
PAGE, AZ       SUNNY     87  34  15 NE6       30.03F
GRAND CANYON   SUNNY     77  39  25 SW9G17    30.24R
KINGMAN        SUNNY     92  39  15 SW10      29.98S
FLAGSTAFF      SUNNY     75  43  31 SW10      30.27S

$$

REGIONAL REPORTS    NEVADA/IDAHO/WYOMING

CITY           SKY/WX    TMP DP  RH WIND       PRES   REMARKS
LAS VEGAS, NV  SUNNY     95  33  11 CALM      29.83F HX  90
ELY            SUNNY     74  32  21 MISG      30.18F
ELKO           SUNNY     72  32  23 VRB3      30.13F
POCATELLO, ID  MOSUNNY   68  38  33 SW15G23   30.12S
BURLEY         SUNNY     67  42  40 W12G20    30.11S
EVANSTON, WY   MOSUNNY   65  34  31 W17G30    30.20R
ROCK SPRINGS   SUNNY     65  32  29 W25G32    30.14F

$$


USA.gov is the U.S. government's official web portal to all federal, state and local government web resources and services.